[[{"header":{"parameterUnit":"m.s-1","parameterCategory":1,"la1":30.2991,"la2":30.254,"lo1":-89.0895,"lo2":-89.0444,"dy":0.0017,"dx":0.0017,"nx":28,"ny":28,"refTime":"2025-09-06T03:00:00:Z","depth":0,"parameterNumber":2,"parameterNumberName":"U-component_of_WINDS"},"data":[0,0,0,0,0,0,0,0,0,0,0,0,0,0,0,0,0,0,0,0,0,0,0,0,0,0,0,0,0,0,0,0,0,0,0,0,0,0,0,0,0,0,0,0,0,0,0,0,0,0,0,0,0,0,0,0,0,0,-0.7453,-0.7452,0,-0.7393,-0.7392,-0.7391,-0.7342,-0.7341,-0.734,-0.734,-0.7278,-0.7277,-0.7276,0,0,0,0,0,0,0,0,0,0,0,0,0,-0.7527,-0.7526,-0.7453,-0.7452,-0.7452,-0.7393,-0.7392,-0.7391,-0.7342,-0.7341,-0.734,-0.734,-0.7278,-0.7277,-0.7276,0,0,0,0,0,0,0,0,0,0,0,0,0,-0.7484,-0.7525,-0.7453,-0.742,-0.7416,-0.7393,-0.7392,-0.7391,-0.7342,-0.7341,-0.734,-0.7339,-0.7279,-0.7277,-0.7275,-0.728,0,0,-0.727,-0.7269,0,0,0,0,0,0,0,0,-0.7486,-0.7481,-0.7425,-0.7422,-0.7418,-0.7374,-0.7395,-0.7354,-0.7342,-0.737,-0.734,-0.7339,-0.7311,-0.7306,-0.7296,-0.7277,-0.7275,-0.727,-0.7269,-0.7268,-0.7268,0,0,0,0,0,0,0,-0.7489,-0.7483,-0.7429,-0.7425,-0.742,-0.7408,-0.7401,-0.7387,-0.7345,-0.7367,-0.7364,-0.7357,-0.7308,-0.7298,-0.7295,-0.7274,-0.727,-0.7268,-0.7267,-0.7267,-0.7258,-0.7258,0,0,0,0,0,0,-0.7497,-0.7486,-0.7431,-0.7427,-0.7451,-0.7408,-0.74,-0.7389,-0.7345,-0.7338,-0.7358,-0.7355,-0.7302,-0.7297,-0.7292,-0.7296,-0.7268,-0.7267,-0.7266,-0.7257,-0.7258,-0.7259,0,0,0,0,0,0,-0.7499,-0.7493,-0.7433,-0.7456,-0.7447,-0.7407,-0.7395,-0.7388,-0.7378,-0.7338,-0.7331,-0.7355,-0.7301,-0.7295,-0.7284,-0.7293,-0.7266,-0.7264,-0.7256,-0.7257,-0.7258,-0.7303,0,0,0,0,0,0,-0.7501,-0.7494,-0.7495,-0.7456,-0.7446,-0.7426,-0.7396,-0.7387,-0.7375,-0.7371,-0.7334,-0.7327,-0.73,-0.7287,-0.7282,-0.729,-0.7263,-0.7255,-0.7256,-0.7258,-0.7301,-0.7306,-0.731,0,0,0,0,0,-0.7504,-0.751,-0.7495,-0.7489,-0.7447,-0.7427,-0.7421,-0.739,-0.7376,-0.7377,-0.7352,-0.7328,-0.7293,-0.7286,-0.7281,-0.7288,-0.7254,-0.7256,-0.7258,-0.7299,-0.7305,-0.731,0,0,0,0,0,0,-0.755,-0.7504,-0.7487,-0.748,-0.7458,-0.7418,-0.7418,-0.7397,-0.7378,-0.7375,-0.7337,-0.7329,-0.7323,-0.7304,-0.7298,-0.7292,-0.7271,-0.7271,-0.7304,-0.7309,-0.7314,-0.7318,-0.7261,0,0,0,0,0,-0.7559,-0.7547,-0.7507,-0.7505,-0.7494,-0.7459,-0.7449,-0.7427,-0.7402,-0.7392,-0.7366,-0.7343,-0.7327,-0.7317,-0.73,-0.7298,-0.729,-0.7301,-0.7306,-0.731,-0.7311,-0.731,-0.7314,-0.7265,-0.7265,-0.7265,0,0,-0.7578,-0.7552,-0.7546,-0.7513,-0.7493,-0.7482,-0.7451,-0.7439,-0.743,-0.739,-0.7379,-0.7359,-0.7331,-0.7325,-0.7322,-0.731,-0.7323,-0.7312,-0.7316,-0.7314,-0.7312,-0.7317,-0.7321,-0.7266,-0.7266,-0.7265,0,0,-0.7607,-0.7585,-0.7581,-0.7562,-0.7533,-0.7509,-0.7509,-0.7473,-0.7458,-0.7446,-0.7416,-0.7405,-0.7378,-0.736,-0.7347,-0.7371,-0.7349,-0.7367,-0.7391,-0.7391,-0.7395,-0.7398,-0.7407,-0.7411,-0.7368,-0.7368,-0.7368,0,-0.7634,-0.7615,-0.7582,-0.7573,-0.756,-0.7524,-0.752,-0.7503,-0.747,-0.7462,-0.745,-0.7416,-0.7394,-0.7384,-0.7391,-0.7381,-0.738,-0.737,-0.7397,-0.74,-0.7402,-0.7411,-0.7414,-0.737,-0.737,-0.737,-0.737,0,-0.7651,-0.7638,-0.7638,-0.7608,-0.7595,-0.7588,-0.7555,-0.7546,-0.7526,-0.7504,-0.7493,-0.7467,-0.7444,-0.744,-0.742,-0.7428,-0.7422,-0.7404,-0.7382,-0.741,-0.7417,-0.742,-0.7374,-0.7373,-0.7372,-0.7372,0,0,-0.7705,-0.7657,-0.7658,-0.7644,-0.761,-0.7599,-0.7592,-0.7571,-0.7564,-0.7543,-0.7536,-0.7515,-0.7499,-0.7484,-0.7462,-0.7461,-0.7484,-0.7443,-0.7442,-0.7452,-0.7492,-0.7506,-0.751,-0.7469,-0.7469,-0.747,-0.7494,0,-0.7729,-0.7713,-0.7684,-0.7678,-0.7666,-0.7633,-0.7627,-0.7605,-0.7585,-0.7573,-0.7551,-0.7537,-0.7515,-0.7507,-0.7505,-0.7481,-0.7491,-0.7479,-0.7463,-0.7463,-0.7471,-0.7514,-0.7528,-0.7553,-0.7497,-0.7498,-0.7498,0,-0.7753,-0.7735,-0.7728,-0.7695,-0.7689,-0.7684,-0.7663,-0.7651,-0.7627,-0.7613,-0.7598,-0.7574,-0.7565,-0.7545,-0.7534,-0.7526,-0.7518,-0.7506,-0.7506,-0.7503,-0.7482,-0.7513,-0.756,-0.7564,-0.7502,-0.7502,-0.7501,0,-0.7795,-0.7768,-0.776,-0.7749,-0.7711,-0.7709,-0.7693,-0.7668,-0.7657,-0.7639,-0.7632,-0.7613,-0.7602,-0.7589,-0.756,-0.7549,-0.7552,-0.753,-0.7541,-0.7541,-0.7542,-0.7543,-0.7589,-0.7537,-0.7537,-0.7537,-0.7537,0,-0.7824,-0.7821,-0.7779,-0.7774,-0.777,-0.7738,-0.7735,-0.7716,-0.7694,-0.7686,-0.7656,-0.7649,-0.7612,-0.7602,-0.758,-0.7574,-0.7569,-0.7558,-0.7552,-0.7561,-0.7562,-0.7555,-0.7552,-0.7538,-0.7538,-0.7538,-0.7537,0,-0.7869,-0.7841,-0.783,-0.7796,-0.7787,-0.7786,-0.7756,-0.7751,-0.773,-0.772,-0.7716,-0.7683,-0.7668,-0.7639,-0.7617,-0.7602,-0.7602,-0.7591,-0.761,-0.7607,-0.7619,-0.7619,-0.7662,-0.7667,-0.7612,-0.7613,-0.7613,0,-0.789,-0.7887,-0.7852,-0.7845,-0.783,-0.7818,-0.7807,-0.7776,-0.7766,-0.7739,-0.7738,-0.7721,-0.7706,-0.7685,-0.7659,-0.7643,-0.7632,-0.7648,-0.7629,-0.7638,-0.7633,-0.7633,-0.7634,-0.7653,-0.7653,-0.7654,-0.7655,0,-0.793,-0.7916,-0.7902,-0.7883,-0.7871,-0.7855,-0.7837,-0.7832,-0.7797,-0.7787,-0.7773,-0.7761,-0.7739,-0.7723,-0.7703,-0.7687,-0.7666,-0.7661,-0.7663,-0.7671,-0.7683,-0.7678,-0.7622,-0.766,-0.7659,-0.7659,-0.7659,-0.7659,-0.7964,-0.796,-0.7935,-0.7921,-0.7904,-0.7889,-0.7882,-0.7861,-0.7848,-0.7827,-0.781,-0.7797,-0.7774,-0.7745,-0.7731,-0.7721,-0.771,-0.7712,-0.7713,-0.7714,-0.7718,-0.7684,-0.7717,-0.7717,-0.7716,-0.7716,-0.7716,0,-0.8003,-0.7985,-0.7972,-0.7948,-0.7937,-0.7918,-0.7898,-0.789,-0.7879,-0.7859,-0.7846,-0.783,-0.7815,-0.7789,-0.7772,-0.7769,-0.7759,-0.7766,-0.7766,-0.7763,-0.7728,-0.7729,-0.7775,-0.7775,-0.7775,-0.7775,-0.7775,-0.7775,-0.8022,-0.8015,-0.7998,-0.7984,-0.7966,-0.7954,-0.7944,-0.793,-0.7914,-0.7898,-0.7885,-0.7868,-0.7847,-0.7828,-0.7814,-0.7807,-0.7803,-0.7813,-0.7803,-0.7771,-0.7765,-0.776,-0.776,-0.7812,-0.7812,-0.7838,-0.7839,-0.7839]},{"header":{"parameterUnit":"m.s-1","parameterCategory":1,"la1":30.2991,"la2":30.254,"lo1":-89.0895,"lo2":-89.0444,"dy":0.0017,"dx":0.0017,"nx":28,"ny":28,"refTime":"2025-09-06T03:00:00:Z","depth":0,"parameterNumber":3,"parameterNumberName":"V-component_of_WINDS"},"data":[0,0,0,0,0,0,0,0,0,0,0,0,0,0,0,0,0,0,0,0,0,0,0,0,0,0,0,0,0,0,0,0,0,0,0,0,0,0,0,0,0,0,0,0,0,0,0,0,0,0,0,0,0,0,0,0,0,0,3.1029,3.1029,0,3.1019,3.1019,3.1019,3.1071,3.1072,3.1074,3.1075,3.1058,3.1057,3.1055,0,0,0,0,0,0,0,0,0,0,0,0,0,3.109,3.1089,3.103,3.1029,3.1029,3.1019,3.1019,3.1018,3.107,3.1072,3.1074,3.1076,3.1059,3.1057,3.1055,0,0,0,0,0,0,0,0,0,0,0,0,0,3.107,3.1088,3.103,3.1054,3.1056,3.1019,3.1019,3.1018,3.107,3.1072,3.1075,3.1077,3.106,3.1057,3.1054,3.0991,0,0,3.1046,3.1044,0,0,0,0,0,0,0,0,3.1071,3.1067,3.1051,3.1052,3.1055,3.1049,3.1034,3.1009,3.1069,3.1065,3.1075,3.1078,3.1053,3.1051,3.1044,3.099,3.0989,3.1045,3.1044,3.1042,3.1042,0,0,0,0,0,0,0,3.1072,3.1068,3.1025,3.105,3.1053,3.1064,3.1064,3.1029,3.1046,3.1065,3.1069,3.1067,3.1054,3.1046,3.1044,3.0989,3.1045,3.1043,3.1041,3.104,3.0883,3.088,0,0,0,0,0,0,3.1071,3.1069,3.1025,3.1025,3.1069,3.1061,3.1061,3.1048,3.1046,3.1048,3.1065,3.107,3.105,3.1047,3.1043,3.0968,3.1043,3.104,3.1038,3.0885,3.0882,3.0879,0,0,0,0,0,0,3.1072,3.1067,3.1026,3.1048,3.1044,3.1058,3.1043,3.1047,3.1039,3.1047,3.1049,3.1054,3.1051,3.1047,3.1004,3.0968,3.1039,3.1036,3.0888,3.0884,3.0881,3.0818,0,0,0,0,0,0,3.1074,3.1067,3.1044,3.1047,3.1042,3.0988,3.1041,3.1045,3.1034,3.104,3.1037,3.1038,3.1053,3.1008,3.1001,3.0966,3.1034,3.0891,3.0886,3.0882,3.0823,3.0813,3.0804,0,0,0,0,0,3.1076,3.1026,3.1043,3.1037,3.1014,3.0986,3.0983,3.1002,3.1031,3.1007,3.1013,3.1039,3.0974,3.1003,3.0996,3.0959,3.0893,3.0888,3.0882,3.0828,3.0815,3.0804,0,0,0,0,0,0,3.1016,3.1026,3.1045,3.0995,3.099,3.0995,3.0966,3.0988,3.0972,3.0978,3.1001,3.1,3.0952,3.0952,3.0984,3.0897,3.0938,3.0931,3.0899,3.0887,3.0877,3.0878,3.1032,0,0,0,0,0,3.0997,3.0975,3.0985,3.094,3.0936,3.0951,3.094,3.0955,3.0949,3.0947,3.0949,3.094,3.0918,3.0903,3.0883,3.0824,3.0823,3.0795,3.0785,3.0777,3.077,3.0738,3.0725,3.0861,3.0861,3.0861,0,0,3.0957,3.0961,3.0945,3.0928,3.0925,3.09,3.0949,3.092,3.0901,3.0942,3.0901,3.0902,3.0895,3.0843,3.082,3.0841,3.0733,3.077,3.0764,3.0761,3.0731,3.0718,3.0706,3.0857,3.0858,3.0858,0,0,3.0872,3.0873,3.0835,3.0832,3.0829,3.0839,3.083,3.0832,3.0835,3.0796,3.0825,3.0802,3.0764,3.0757,3.0748,3.0661,3.0684,3.0654,3.0602,3.057,3.0559,3.055,3.0517,3.0506,3.0647,3.0647,3.0647,0,3.0823,3.0788,3.0813,3.0782,3.0773,3.0811,3.0772,3.0767,3.0756,3.0748,3.0772,3.0725,3.0722,3.0669,3.0648,3.064,3.0629,3.0654,3.0559,3.055,3.0541,3.0511,3.0499,3.0644,3.0644,3.0644,3.0645,0,3.0727,3.0702,3.0671,3.0662,3.065,3.0615,3.0632,3.0617,3.0634,3.0641,3.06,3.0598,3.0579,3.0568,3.0583,3.0516,3.0529,3.0556,3.0597,3.0524,3.0496,3.0484,3.0638,3.064,3.0641,3.0642,0,0,3.0602,3.0608,3.0596,3.0592,3.0591,3.0571,3.0538,3.052,3.0506,3.0497,3.0468,3.0435,3.046,3.045,3.0465,3.0438,3.0368,3.0468,3.0468,3.0448,3.0292,3.0271,3.0257,3.0383,3.0381,3.038,3.0293,0,3.0517,3.0462,3.0484,3.0426,3.0402,3.0439,3.0409,3.0404,3.0411,3.039,3.0397,3.0373,3.0408,3.0402,3.0377,3.0381,3.0336,3.0388,3.0355,3.0353,3.0354,3.0243,3.022,3.0138,3.0282,3.028,3.0279,0,3.0411,3.04,3.034,3.0344,3.0334,3.0308,3.0293,3.0274,3.0269,3.0276,3.0265,3.0287,3.0252,3.0295,3.0247,3.0282,3.0269,3.027,3.0267,3.0263,3.031,3.0234,3.0112,3.0099,3.0261,3.0263,3.0264,0,3.0324,3.0294,3.0255,3.025,3.0253,3.0234,3.0234,3.0231,3.0219,3.0206,3.0199,3.0181,3.0171,3.0156,3.0172,3.0202,3.012,3.0165,3.0123,3.0122,3.0103,3.0103,2.9976,3.0097,3.0098,3.0098,3.0098,0,3.0226,3.0188,3.0216,3.0191,3.0149,3.0173,3.013,3.0134,3.0132,3.0107,3.0137,3.0113,3.0136,3.0113,3.0125,3.0083,3.0078,3.0081,3.0084,3.0077,3.0077,3.0068,3.0074,3.0095,3.0095,3.0096,3.0097,0,3.0121,3.0139,3.0098,3.0105,3.0106,3.0074,3.0079,3.0055,3.0065,3.0033,3.0027,3.0041,3.0016,3.0031,3.0005,3.0012,2.9957,2.9969,2.9959,2.9961,2.9919,2.9922,2.9779,2.9761,2.9896,2.9895,2.9894,0,3.0057,3.0029,3.0033,3.002,3.0019,2.9997,2.9986,3.0009,2.9995,2.9988,2.9965,2.9943,2.9927,2.9885,2.9891,2.9871,2.9882,2.9834,2.9879,2.9873,2.9879,2.988,2.9877,2.9824,2.9822,2.9821,2.982,0,2.9941,2.9951,2.9935,2.9921,2.9907,2.9897,2.9889,2.9876,2.9899,2.9882,2.9858,2.9846,2.9821,2.9798,2.9781,2.9779,2.9802,2.9806,2.9795,2.9787,2.9782,2.9782,2.9932,2.9808,2.9809,2.981,2.9811,2.9811,2.9853,2.9829,2.9829,2.981,2.9807,2.9799,2.9777,2.9785,2.9766,2.9748,2.9763,2.9734,2.9729,2.9709,2.9705,2.9681,2.97,2.9685,2.968,2.9676,2.9669,2.9787,2.9678,2.9679,2.9679,2.9679,2.9679,0,2.9737,2.9739,2.9721,2.971,2.9695,2.9721,2.9714,2.9698,2.9673,2.9668,2.9652,2.9624,2.9602,2.9607,2.9587,2.9567,2.9578,2.9561,2.9562,2.9561,2.9654,2.9665,2.9553,2.9554,2.9554,2.9554,2.9554,2.9554,2.9675,2.9636,2.9646,2.9606,2.9608,2.9581,2.9575,2.9567,2.9563,2.9531,2.9514,2.9519,2.9517,2.9498,2.9478,2.9481,2.9471,2.945,2.9456,2.9542,2.9555,2.9566,2.9577,2.9449,2.9448,2.9365,2.9364,2.9364]}]]